Simultaneous Nadir Overpasses (SNOs) Predictions

Prediction of SNOs between GOES-16 and LANDSAT-8 Satellite Orbit:

Table of predicted SNOs for the next 14.0 days since TLE Epoch: 4/6/2024
Index Date Time (GOES-16) GOES-16 Lat,Lon LANDSAT-8 Lat,Lon Distance(km) Time Diff (sec)
1 04/07/2024 03:09:12 -0.03, -75.20 0.07, -74.67 59.74 80
2 04/09/2024 02:57:01 -0.03, -75.22 0.68, -71.72 397.23 80
3 04/09/2024 15:18:16 0.03, -75.24 0.37, -76.89 187.10 80
4 04/11/2024 15:08:44 0.02, -75.26 -0.27, -73.93 150.87 80
5 04/12/2024 03:30:08 -0.02, -75.25 -0.84, -79.12 440.62 80
6 04/13/2024 14:56:32 0.02, -75.28 -0.92, -70.98 489.17 80
7 04/14/2024 03:17:56 -0.01, -75.27 -0.19, -76.17 102.21 80
8 04/16/2024 03:03:03 -0.01, -75.30 0.42, -73.21 237.04 80
9 04/16/2024 15:24:19 0.01, -75.32 0.62, -78.38 346.92 80
10 04/18/2024 15:12:06 0.00, -75.36 0.00, -75.42 6.55 80
